WetterOnline ( http://www.wetteronline.de )

Wetter aktuell Warendorf

Aktuelles Wetter: Belm (103m)

6-stündlich | Neueste Meldungen
Ortszeit Temperatur Wetter
So, 22.04. 2:00 10.5° C leicht bewölkt
Sa, 21.04. 20:00 17.6° C wolkig
Sa, 21.04. 14:00 18.2° C wolkenlos
Sa, 21.04. 8:00 11.1° C wolkig
Sa, 21.04. 2:00 14.9° C wolkig
Fr, 20.04. 20:00 23.5° C wolkig
Fr, 20.04. 14:00 25.2° C wolkig
Fr, 20.04. 8:00 14.2° C bedeckt
Ortszeit Temperatur Wetter
So, 22.04. 4:30 9.0° C bedeckt
So, 22.04. 4:20 9.0° C bedeckt
So, 22.04. 4:10 8.7° C leicht bewölkt
So, 22.04. 4:00 9.7° C leicht bewölkt
So, 22.04. 3:50 9.7° C wolkig
So, 22.04. 3:40 9.8° C wolkig
So, 22.04. 3:30 10.7° C wolkig
So, 22.04. 3:00 11.1° C wolkig
So, 22.04. 2:30 9.8° C wolkig
So, 22.04. 2:00 10.5° C leicht bewölkt
So, 22.04. 1:30 11.4° C leicht bewölkt
Ortszeit Relative Feuchte Sichtweite
So, 22.04. 2:00 72% 55 km
Sa, 21.04. 20:00 47% 55 km
Sa, 21.04. 14:00 48% 24 km
Sa, 21.04. 8:00 86% 2.4 km
Sa, 21.04. 2:00 74% 8 km
Fr, 20.04. 20:00 46% 28 km
Fr, 20.04. 14:00 47% 40 km
Fr, 20.04. 8:00 76% 12 km
Ortszeit Relative Feuchte Sichtweite
So, 22.04. 4:30 81% 35 km
So, 22.04. 4:20 81% -
So, 22.04. 4:10 82% -
So, 22.04. 4:00 76% 40 km
So, 22.04. 3:50 76% -
So, 22.04. 3:40 75% -
So, 22.04. 3:30 71% 45 km
So, 22.04. 3:00 69% 45 km
So, 22.04. 2:30 76% 50 km
So, 22.04. 2:00 72% 55 km
So, 22.04. 1:30 67% 65 km
Ortszeit Niederschlagsmenge Niederschlagsart
So, 22.04. 2:00 0.0 l/m2 in 6 Std. -
Sa, 21.04. 20:00 0.0 l/m2 in 12 Std. -
Sa, 21.04. 14:00 0.0 l/m2 in 6 Std. -
Sa, 21.04. 8:00 0.0 l/m2 in 12 Std. -
Sa, 21.04. 2:00 0.0 l/m2 in 6 Std. -
Fr, 20.04. 20:00 0.0 l/m2 in 12 Std. -
Fr, 20.04. 14:00 0.0 l/m2 in 6 Std. -
Fr, 20.04. 8:00 0.0 l/m2 in 12 Std. -
Ortszeit Niederschlagsmenge Niederschlagsart
So, 22.04. 4:30 0.0 l/m2 in 1 Std. -
So, 22.04. 4:20 keine Meldung -
So, 22.04. 4:10 keine Meldung -
So, 22.04. 4:00 0.0 l/m2 in 1 Std. -
So, 22.04. 3:50 keine Meldung -
So, 22.04. 3:40 keine Meldung -
So, 22.04. 3:30 0.0 l/m2 in 1 Std. -
So, 22.04. 3:00 0.0 l/m2 in 1 Std. -
So, 22.04. 2:30 0.0 l/m2 in 1 Std. -
So, 22.04. 2:00 0.0 l/m2 in 1 Std. -
So, 22.04. 1:30 0.0 l/m2 in 1 Std. -
Ortszeit Stärke Spitze Richtung
km/h Bft. km/h Grad Sektor
So, 22.04. 2:00 2 1 17 70° O
Sa, 21.04. 20:00 4 1 22 60° NO
Sa, 21.04. 14:00 9 2 22 40° NO
Sa, 21.04. 8:00 9 2 17 20° N
Sa, 21.04. 2:00 0 0 18 - -
Fr, 20.04. 20:00 4 1 29 280° W
Fr, 20.04. 14:00 11 2 22 250° W
Fr, 20.04. 8:00 4 1 14 180° S
Ortszeit Stärke Spitze Richtung
km/h Bft. km/h Grad Sektor
So, 22.04. 4:30 4 1 11 80° O
So, 22.04. 4:20 4 1 - 80° O
So, 22.04. 4:10 0 0 - 140° SO
So, 22.04. 4:00 7 2 22 80° O
So, 22.04. 3:50 7 2 - 80° O
So, 22.04. 3:40 7 2 - 90° O
So, 22.04. 3:30 13 3 22 70° O
So, 22.04. 3:00 11 2 18 80° O
So, 22.04. 2:30 4 1 7 100° O
So, 22.04. 2:00 2 1 15 70° O
So, 22.04. 1:30 7 2 14 90° O
Ortszeit Untergrenze Bedeckung Gattung
total tief tief mittel hoch
So, 22.04. 2:00 9000 m 6/8 0/8 - - -
Sa, 21.04. 20:00 10500 m 8/8 0/8 - - -
Sa, 21.04. 14:00 - 0/8 0/8 - - -
Sa, 21.04. 8:00 9000 m 8/8 0/8 - - -
Sa, 21.04. 2:00 9000 m 8/8 0/8 - - -
Fr, 20.04. 20:00 2100 m 5/8 - - - -
Fr, 20.04. 14:00 3600 m 6/8 - - - -
Fr, 20.04. 8:00 - 8/8 - - - -
Ortszeit Bedeckungsgrad in Achtel und Wolkenuntergrenze
So, 22.04. 4:30 9 9 9
So, 22.04. 4:20 9 9 9
So, 22.04. 4:10 2(3600m)
So, 22.04. 4:00 1(3000m) 6(10500m)
So, 22.04. 3:50 1(3000m) 2(3600m) 6(10500m)
So, 22.04. 3:40 1(3000m) 7(10500m)
So, 22.04. 3:30 3(9000m) 7(10500m) 7(10500m)
So, 22.04. 3:00 8(9000m) 8(10500m)
So, 22.04. 2:30 8(9000m) 8(10500m)
So, 22.04. 2:00 6(9000m)
So, 22.04. 1:30 1(3300m) 3(10500m)
Ortszeit Luftdruck NN (hPa) Tendenz (hPa in 3 Std.)
So, 22.04. 2:00 1019 - 0,6
Sa, 21.04. 20:00 1020 - 1,0
Sa, 21.04. 14:00 1022 - 0,6
Sa, 21.04. 8:00 1022 + 0,9
Sa, 21.04. 2:00 1021 0,0
Fr, 20.04. 20:00 1020 - 0,9
Fr, 20.04. 14:00 1022 - 0,8
Fr, 20.04. 8:00 1023 - 0,5
Ortszeit Luftdruck NN (hPa) Tendenz (hPa in 3 Std.)
So, 22.04. 4:30 1018 - 1,7
So, 22.04. 4:20 1018 keine Meldung
So, 22.04. 4:10 1018 keine Meldung
So, 22.04. 4:00 1018 - 1,4
So, 22.04. 3:50 1018 keine Meldung
So, 22.04. 3:40 1018 keine Meldung
So, 22.04. 3:30 1018 - 1,6
So, 22.04. 3:00 1019 - 1,1
So, 22.04. 2:30 1019 - 0,7
So, 22.04. 2:00 1019 - 0,6
So, 22.04. 1:30 1019 - 0,7
Ortszeit Schneehöhe (cm)
So, 22.04. 2:00 0
Sa, 21.04. 20:00 0
Sa, 21.04. 14:00 0
Sa, 21.04. 8:00 0
Sa, 21.04. 2:00 0
Fr, 20.04. 20:00 0
Fr, 20.04. 14:00 0
Fr, 20.04. 8:00 0
Ortszeit Schneehöhe (cm)
So, 22.04. 4:30 0
So, 22.04. 4:20 0
So, 22.04. 4:10 0
So, 22.04. 4:00 0
So, 22.04. 3:50 0
So, 22.04. 3:40 0
So, 22.04. 3:30 0
So, 22.04. 3:00 0
So, 22.04. 2:30 0
So, 22.04. 2:00 0
So, 22.04. 1:30 0
Link zu dieser Seite / Seite empfehlen

Das Wetter in ...